Location: Dammartin
(48.9032°N, 1.6195°E)
Time: 09:17:48
(UTC+00:00)

Meteor 2-12 Rocket - Pass Details

Date: 03 February 2023
Orbit: 935 x 958 km, 82.5° (Epoch: 28 March)

Event Time Altitude Azimuth Distance (km) Brightness Sun altitude
Rises 18:16:43 0° 350° (N) 3,624 7.5 -13.8°
Reaches altitude 10° 18:19:14 10° 352° (N) 2,672 6.8 -14.2°
Maximum altitude 18:25:21 77° 79° (E) 968 4.3 -15.2°
Drops below altitude 10° 18:31:23 10° 166° (SSE) 2,642 6.7 -16.2°
Sets 18:33:52 0° 168° (SSE) 3,580 7.4 -16.6°
